TimeEDT,TemperatureF,Dew PointF,Humidity,Sea Level PressureIn,VisibilityMPH,Wind Direction,Wind SpeedMPH,Gust SpeedMPH,PrecipitationIn,Events,Conditions,WindDirDegrees,DateUTC
12:15 AM,37.4,15.8,41,29.93,10.0,West,13.8,20.7,N/A,,Clear,280,2013-03-20 04:15:00
12:35 AM,37.4,15.8,41,29.93,10.0,West,19.6,28.8,N/A,,Clear,280,2013-03-20 04:35:00
12:55 AM,37.4,15.8,41,29.94,10.0,WNW,18.4,26.5,N/A,,Clear,290,2013-03-20 04:55:00
1:35 AM,35.6,17.6,48,29.95,10.0,WNW,16.1,24.2,N/A,,Scattered Clouds,290,2013-03-20 05:35:00
1:55 AM,35.6,15.8,44,29.95,10.0,WNW,10.4,17.3,N/A,,Mostly Cloudy,290,2013-03-20 05:55:00
2:15 AM,35.6,15.8,44,29.95,10.0,West,13.8,20.7,N/A,,Scattered Clouds,270,2013-03-20 06:15:00
2:35 AM,35.6,15.8,44,29.96,10.0,West,15.0,18.4,N/A,,Clear,270,2013-03-20 06:35:00
2:55 AM,35.6,14.0,41,29.96,10.0,West,8.1,-,N/A,,Clear,260,2013-03-20 06:55:00
3:15 AM,35.6,14.0,41,29.96,10.0,West,10.4,16.1,N/A,,Clear,270,2013-03-20 07:15:00
3:35 AM,35.6,14.0,41,29.96,10.0,West,8.1,-,N/A,,Clear,270,2013-03-20 07:35:00
3:55 AM,33.8,14.0,44,29.96,10.0,West,9.2,16.1,N/A,,Clear,270,2013-03-20 07:55:00
4:15 AM,33.8,14.0,44,29.95,10.0,West,9.2,-,N/A,,Clear,270,2013-03-20 08:15:00
4:35 AM,33.8,14.0,44,29.95,10.0,West,11.5,18.4,N/A,,Scattered Clouds,270,2013-03-20 08:35:00
4:55 AM,33.8,14.0,44,29.95,10.0,West,10.4,17.3,N/A,,Scattered Clouds,280,2013-03-20 08:55:00
5:15 AM,33.8,15.8,48,29.95,10.0,West,8.1,-,N/A,,Scattered Clouds,280,2013-03-20 09:15:00
5:35 AM,33.8,14.0,44,29.96,10.0,West,10.4,16.1,N/A,,Scattered Clouds,280,2013-03-20 09:35:00
5:55 AM,32.0,14.0,48,29.96,10.0,West,8.1,-,N/A,,Clear,270,2013-03-20 09:55:00
6:15 AM,32.0,15.8,51,29.96,10.0,West,8.1,-,N/A,,Clear,280,2013-03-20 10:15:00
6:55 AM,32.0,14.0,48,29.96,10.0,West,6.9,-,N/A,,Clear,270,2013-03-20 10:55:00
7:15 AM,32.0,14.0,48,29.96,10.0,West,6.9,-,N/A,,Clear,270,2013-03-20 11:15:00
7:35 AM,32.0,14.0,48,29.96,10.0,WSW,3.5,-,N/A,,Clear,250,2013-03-20 11:35:00
7:55 AM,32.0,17.6,55,29.97,10.0,SW,3.5,-,N/A,,Clear,220,2013-03-20 11:55:00
8:15 AM,33.8,15.8,48,29.97,10.0,SW,4.6,-,N/A,,Clear,230,2013-03-20 12:15:00
8:35 AM,35.6,15.8,44,29.97,10.0,SW,4.6,-,N/A,,Scattered Clouds,230,2013-03-20 12:35:00
8:55 AM,35.6,14.0,41,29.97,10.0,West,6.9,-,N/A,,Clear,270,2013-03-20 12:55:00
9:15 AM,37.4,15.8,41,29.97,10.0,WSW,8.1,17.3,N/A,,Clear,250,2013-03-20 13:15:00
9:35 AM,37.4,17.6,45,29.98,10.0,West,12.7,-,N/A,,Scattered Clouds,260,2013-03-20 13:35:00
9:55 AM,37.4,15.8,41,29.97,10.0,WSW,12.7,24.2,N/A,,Scattered Clouds,250,2013-03-20 13:55:00
10:15 AM,39.2,17.6,42,29.98,10.0,West,13.8,20.7,N/A,,Clear,280,2013-03-20 14:15:00
10:35 AM,41.0,17.6,39,29.97,10.0,West,18.4,27.6,N/A,,Scattered Clouds,260,2013-03-20 14:35:00
10:55 AM,41.0,17.6,39,29.97,10.0,West,17.3,23.0,N/A,,Mostly Cloudy,270,2013-03-20 14:55:00
11:15 AM,41.0,19.4,42,29.96,10.0,West,16.1,23.0,N/A,,Mostly Cloudy,280,2013-03-20 15:15:00
11:35 AM,42.8,21.2,42,29.95,10.0,WNW,13.8,18.4,N/A,,Scattered Clouds,290,2013-03-20 15:35:00
11:55 AM,42.8,19.4,39,29.94,10.0,West,15.0,23.0,N/A,,Mostly Cloudy,270,2013-03-20 15:55:00
12:15 PM,42.8,19.4,39,29.93,10.0,West,13.8,28.8,N/A,,Scattered Clouds,280,2013-03-20 16:15:00
12:35 PM,42.8,21.2,42,29.91,10.0,West,16.1,21.9,N/A,,Scattered Clouds,280,2013-03-20 16:35:00
12:55 PM,44.6,19.4,37,29.90,10.0,West,13.8,26.5,N/A,,Scattered Clouds,270,2013-03-20 16:55:00
1:15 PM,44.6,19.4,37,29.89,10.0,West,16.1,23.0,N/A,,Scattered Clouds,270,2013-03-20 17:15:00
1:35 PM,46.4,21.2,37,29.88,10.0,WSW,13.8,18.4,N/A,,Scattered Clouds,250,2013-03-20 17:35:00
1:55 PM,46.4,19.4,34,29.87,10.0,WSW,11.5,20.7,N/A,,Scattered Clouds,250,2013-03-20 17:55:00
2:15 PM,48.2,21.2,34,29.84,10.0,WSW,16.1,24.2,N/A,,Scattered Clouds,250,2013-03-20 18:15:00
2:35 PM,48.2,19.4,32,29.83,10.0,West,20.7,25.3,N/A,,Scattered Clouds,270,2013-03-20 18:35:00
2:55 PM,48.2,19.4,32,29.82,10.0,West,17.3,23.0,N/A,,Scattered Clouds,260,2013-03-20 18:55:00
3:15 PM,48.2,19.4,32,29.80,10.0,West,16.1,19.6,N/A,,Scattered Clouds,270,2013-03-20 19:15:00
3:35 PM,46.4,19.4,34,29.80,10.0,West,11.5,23.0,N/A,,Clear,260,2013-03-20 19:35:00
3:55 PM,48.2,17.6,30,29.79,10.0,West,16.1,23.0,N/A,,Scattered Clouds,260,2013-03-20 19:55:00
4:15 PM,48.2,19.4,32,29.78,10.0,West,17.3,24.2,N/A,,Scattered Clouds,260,2013-03-20 20:15:00
4:35 PM,46.4,17.6,32,29.78,10.0,West,15.0,21.9,N/A,,Clear,260,2013-03-20 20:35:00
4:55 PM,46.4,19.4,34,29.77,10.0,West,18.4,24.2,N/A,,Scattered Clouds,270,2013-03-20 20:55:00
5:15 PM,48.2,19.4,32,29.77,10.0,WSW,16.1,20.7,N/A,,Scattered Clouds,250,2013-03-20 21:15:00
5:35 PM,46.4,19.4,34,29.76,10.0,West,12.7,-,N/A,,Scattered Clouds,280,2013-03-20 21:35:00
5:55 PM,46.4,19.4,34,29.76,10.0,WNW,17.3,21.9,N/A,,Scattered Clouds,290,2013-03-20 21:55:00
6:15 PM,46.4,21.2,37,29.76,10.0,West,13.8,17.3,N/A,,Scattered Clouds,280,2013-03-20 22:15:00
6:35 PM,44.6,21.2,39,29.76,10.0,West,12.7,17.3,N/A,,Scattered Clouds,270,2013-03-20 22:35:00
6:55 PM,44.6,21.2,39,29.76,10.0,West,9.2,-,N/A,,Scattered Clouds,260,2013-03-20 22:55:00
7:15 PM,44.6,21.2,39,29.76,10.0,West,9.2,-,N/A,,Scattered Clouds,260,2013-03-20 23:15:00
7:35 PM,44.6,21.2,39,29.77,10.0,West,11.5,-,N/A,,Mostly Cloudy,260,2013-03-20 23:35:00
7:55 PM,41.0,23.0,49,29.77,10.0,West,6.9,-,N/A,,Scattered Clouds,280,2013-03-20 23:55:00
8:15 PM,42.8,21.2,42,29.77,10.0,West,11.5,-,N/A,,Scattered Clouds,280,2013-03-21 00:15:00
8:35 PM,42.8,23.0,46,29.78,10.0,West,10.4,-,N/A,,Scattered Clouds,280,2013-03-21 00:35:00
8:55 PM,41.0,26.6,57,29.78,10.0,NW,16.1,-,N/A,,Mostly Cloudy,310,2013-03-21 00:55:00
9:15 PM,41.0,26.6,57,29.78,10.0,NW,13.8,-,N/A,,Mostly Cloudy,310,2013-03-21 01:15:00
9:35 PM,39.2,26.6,61,29.79,10.0,NNW,11.5,19.6,N/A,,Overcast,340,2013-03-21 01:35:00
10:15 PM,33.8,30.2,87,29.81,10.0,NW,12.7,24.2,N/A,,Overcast,320,2013-03-21 02:15:00
10:35 PM,33.8,30.2,87,29.82,10.0,NW,10.4,18.4,N/A,,Mostly Cloudy,320,2013-03-21 02:35:00
10:55 PM,33.8,28.4,81,29.82,10.0,North,3.5,-,N/A,,Overcast,10,2013-03-21 02:55:00
11:15 PM,33.8,28.4,81,29.83,10.0,NNW,3.5,-,N/A,,Overcast,330,2013-03-21 03:15:00
11:35 PM,33.8,28.4,81,29.83,10.0,NNW,4.6,-,N/A,,Overcast,330,2013-03-21 03:35:00
11:55 PM,33.8,30.2,87,29.83,10.0,NW,9.2,-,N/A,,Overcast,320,2013-03-21 03:55:00